Torna al catalogo

TAIJING-3 04

AttivoMilitareSSO
NORAD 64088·PAYLOAD·🇨🇳 China
Questo nome del satellite non è ancora stato confermato da fonti ufficiali.

Lanciato May 21, 2025 da Jiuquan Satellite Launch Center

Loading…

Prossimi Passaggi (prossime 24 ore)

TLE

AggiornatoSource: Space-Track

Epoca: Sep 14, 2026, 21:42 UTC

1 64088U 25108B   26257.90459101  .00007459  00000-0  35222-3 0  9995
2 64088  97.4658 332.7053 0008816  65.5521 294.6633 15.19689581 72989

Traccia TAIJING-3 04 in tempo reale con AllMySat

Download on the App Store